Location: Dompnac
(44.5644°N, 4.1026°E)
Time: 11:23:01
(UTC+00:00)

Cosmos 1627 Rocket - Pass Details

Date: 19 September 2020
Orbit: 951 x 1004 km, 82.9° (Epoch: 29 October)

Event Time Altitude Azimuth Distance (km) Brightness Sun altitude
Rises 20:09:10 0° 351° (N) 3,733 8.1 -25.2°
Reaches altitude 10° 20:11:43 10° 352° (N) 2,783 7.3 -25.6°
Maximum altitude 20:18:08 89° 81° (E) 1,011 4.4 -26.6°
Enters shadow 20:19:40 56° 171° (S) 1,184 4.6 -26.8°
